Wind_Speed
42 37 35 36 33 34 37 37 27 5 4 18 14 24 23 20 21 20 18 16 15 13 10 8 7 6 5 4 5 7 8 9 10 10 12 13 15 17
42 39 37 37 34 32 37 36 28 13 4 15 22 27 28 23 21 19 19 18 15 10 8 7 6 5 4 2 3 4 6 8 9 9 11 13 15 17
40 41 38 38 35 32 36 36 24 18 17 10 23 26 30 27 25 20 18 18 17 12 10 9 7 5 4 1 1 3 4 6 6 8 11 12 15 18
44 44 40 39 36 35 37 37 24 25 22 23 23 32 31 28 29 24 20 16 16 14 12 11 8 6 4 3 1 2 3 5 6 8 10 13 15 17
47 45 43 40 38 37 38 39 25 23 23 23 21 32 30 28 28 23 19 15 13 13 14 12 10 8 6 5 3 2 4 4 6 8 11 14 16 18
46 46 46 45 43 40 39 37 32 25 23 26 25 30 30 28 31 27 24 20 17 14 14 13 12 9 7 6 5 4 4 5 6 7 11 15 17 19
43 41 45 46 44 41 41 40 36 31 28 29 25 26 28 32 35 30 28 24 19 18 18 16 15 11 9 9 7 6 4 6 6 7 11 15 17 20
43 40 42 44 43 40 36 36 38 40 35 27 25 28 28 30 32 33 29 26 10 22 20 18 16 13 11 9 7 6 7 7 7 7 12 16 18 19
42 42 41 41 42 39 34 34 36 36 32 35 36 36 33 40 38 35 34 32 13 10 24 17 16 13 11 10 9 9 10 8 7 8 12 15 18 19
45 46 44 43 42 41 37 35 34 34 30 27 25 28 29 32 35 36 35 30 12 12 24 10 16 12 12 11 10 9 10 9 7 9 12 14 17 18
42 45 46 45 44 44 40 37 33 29 25 22 18 18 20 19 31 31 31 30 12 15 25 8 13 12 11 10 8 7 9 7 6 8 9 13 15 17
36 44 47 45 47 47 45 43 38 34 30 24 20 19 19 20 29 31 34 36 16 8 24 14 15 12 5 9 9 6 6 5 4 7 9 11 12 15
37 39 43 45 47 49 48 45 41 37 31 28 27 26 25 27 30 28 26 30 27 8 21 24 17 16 5 5 8 7 5 4 6 7 11 13 13 11
37 41 46 45 44 48 48 43 39 37 34 32 31 31 31 31 29 26 24 26 21 10 15 27 9 15 11 7 4 7 6 4 5 7 11 13 12 12
37 41 47 46 44 44 43 45 41 39 39 38 36 35 35 32 30 27 25 24 20 12 17 22 9 13 12 8 6 8 5 4 5 10 13 13 13 14
34 33 36 43 41 37 38 38 41 43 44 42 38 35 33 32 30 29 28 23 19 16 15 12 10 10 11 9 8 6 4 1 5 10 14 12 11 11
36 34 35 36 33 32 35 38 40 40 39 40 37 36 35 35 32 29 27 25 18 21 16 12 10 9 8 6 6 6 4 3 7 11 15 18 14 15
38 33 31 34 35 35 34 36 37 41 41 40 38 39 39 35 32 27 26 24 20 20 15 14 13 10 7 4 4 5 3 3 7 10 12 18 19 18
29 29 31 32 33 35 33 33 31 40 43 40 41 40 37 33 32 29 27 22 17 18 14 15 14 11 6 2 4 5 4 3 6 9 11 12 18 18
33 33 31 33 35 37 37 37 37 36 39 40 39 37 33 32 32 30 29 24 21 18 16 14 13 14 9 8 5 4 3 4 7 10 14 17 15 14
31 30 32 33 34 35 37 38 43 44 43 41 39 36 33 34 32 30 28 26 22 20 19 15 11 9 9 6 5 3 1 3 7 10 13 15 16 16
29 30 32 35 36 38 39 41 42 41 42 42 39 37 35 35 33 32 30 26 23 23 19 14 11 11 10 6 7 4 1 3 5 6 5 6 9 6
31 33 33 35 37 39 42 44 44 40 40 40 38 36 36 34 32 31 28 26 25 21 19 18 14 10 8 7 5 3 3 4 11 11 5 5 9 12
Wind_Direction
175 172 171 170 171 171 170 170 164 151 177 184 180 198 190 191 187 185 185 183 175 159 152 151 144 131 114 95 75 63 56 51 43 35 27 20 17 10
173 173 174 172 172 178 175 175 176 148 143 179 193 191 190 190 189 190 191 192 194 190 181 180 166 146 130 93 52 42 45 47 39 31 24 16 12 8
174 174 176 177 174 176 179 181 181 188 152 152 191 187 186 190 181 187 198 198 198 201 192 195 183 171 165 151 39 22 16 30 26 21 18 11 9 4
173 178 175 174 177 180 181 178 188 192 171 150 168 178 189 190 182 184 191 197 203 200 196 203 200 196 193 223 281 343 350 1 12 8 6 5 6 1
174 178 179 179 178 180 183 182 186 185 192 170 161 179 182 183 181 189 189 192 198 203 200 206 208 208 216 225 243 287 318 340 354 357 2 0 2 358
178 184 185 185 185 182 184 186 188 180 181 173 160 170 179 186 187 182 177 183 192 200 203 207 211 214 219 236 249 274 304 324 333 349 357 357 357 356
177 184 190 190 192 187 184 185 187 181 176 170 160 165 175 180 187 187 187 187 200 208 204 207 211 215 223 243 252 264 281 304 320 342 349 353 354 354
173 183 191 192 194 191 191 194 192 184 179 167 170 175 183 186 187 189 188 180 195 209 212 213 222 229 230 238 248 256 275 288 306 331 344 349 350 350
174 179 186 191 193 191 196 198 195 198 204 192 188 188 185 197 191 192 194 192 196 198 200 206 213 223 231 243 252 254 264 278 301 327 340 344 344 350
177 183 184 187 191 189 188 189 192 198 204 206 211 206 209 203 203 200 196 191 197 190 189 197 208 220 221 241 253 248 251 271 294 325 337 338 341 346
178 185 190 189 190 191 185 181 185 191 197 205 210 209 210 207 198 190 185 181 169 187 192 194 191 199 213 238 243 250 248 263 295 326 344 340 339 339
175 187 197 194 193 193 190 184 180 183 186 184 180 183 193 199 198 200 190 182 171 175 198 195 183 187 191 225 237 237 241 267 298 315 328 339 342 334
173 181 191 200 197 194 196 193 193 183 181 180 176 176 180 183 190 196 200 197 186 184 192 192 186 189 183 166 210 230 235 239 292 309 334 343 342 338
178 185 193 200 202 197 198 199 197 184 180 178 174 172 175 180 185 187 193 196 204 223 195 195 172 185 188 172 190 204 214 265 297 311 336 345 342 346
187 189 198 200 201 197 193 202 199 187 185 181 180 180 182 180 179 179 185 194 200 190 185 194 193 189 195 193 182 197 211 226 289 326 338 346 343 350
183 184 190 187 185 181 185 194 196 194 193 189 185 182 178 177 180 180 177 180 174 166 175 183 175 192 192 199 208 202 219 237 308 336 334 343 353 353
178 173 165 164 165 173 174 184 190 190 187 188 183 176 176 179 180 181 180 173 172 171 168 164 180 186 187 197 187 208 229 293 337 340 335 337 359 357
170 158 161 167 168 172 175 176 183 186 190 187 181 178 175 178 181 183 184 181 176 176 176 188 181 171 165 163 198 207 221 334 344 339 336 336 341 0
165 164 164 169 170 174 176 175 175 184 187 183 181 179 178 181 186 184 181 178 174 187 193 192 187 186 162 162 189 203 213 322 338 335 335 336 327 346
173 170 170 173 176 175 175 173 176 178 176 178 178 178 182 192 184 181 182 180 184 182 183 190 194 196 202 190 170 181 229 321 333 333 336 333 336 344
174 173 176 177 177 177 175 175 179 178 180 179 180 187 192 192 183 184 186 193 193 187 182 183 187 192 192 173 139 146 176 327 329 326 330 334 336 332
173 174 178 180 177 176 175 173 172 174 177 181 185 191 195 192 189 187 188 186 190 191 183 175 175 176 173 173 158 163 245 307 322 329 301 285 293 296
180 181 180 178 177 177 176 173 174 174 178 181 188 192 193 188 190 190 189 190 188 177 174 165 167 172 157 148 146 134 357 2 348 354 46 12 314 297
Height
827 835 841 850 854 862 869 875 881 895 903 906 909 913 916 919 922 924 927 929 931 933 934 935 935 935 935 935 934 934 934 933 932 930 929 927 924 923
825 832 840 848 854 859 866 873 880 883 893 897 901 904 911 916 920 922 925 927 930 931 933 934 934 935 935 935 935 934 934 932 931 930 928 927 925 922
823 830 835 843 850 856 864 870 878 881 885 893 898 903 908 913 917 920 922 925 928 930 932 933 933 933 934 934 934 934 934 931 929 928 927 926 923 921
817 827 833 842 848 853 860 867 875 878 880 886 893 900 905 911 915 917 920 923 926 928 929 930 931 932 932 932 933 933 932 930 928 928 925 925 923 921
810 821 829 838 845 850 856 863 869 875 879 881 888 896 903 909 912 916 919 921 924 926 927 928 929 929 930 930 930 930 931 930 927 926 925 924 921 919
807 816 822 830 838 843 852 858 864 871 877 881 887 894 900 907 910 912 916 919 921 923 925 927 928 927 928 930 929 929 930 929 927 926 924 922 919 916
804 814 820 824 833 836 844 853 860 866 873 878 884 891 897 901 902 908 912 915 919 920 921 922 924 925 925 927 928 928 928 928 927 926 924 920 918 916
799 811 819 822 830 835 842 848 852 857 865 872 878 882 887 893 898 902 908 912 916 915 918 920 922 922 924 925 925 925 926 926 925 925 924 920 917 913
794 804 814 820 828 833 841 847 852 856 859 860 866 873 880 882 889 897 901 904 907 909 914 917 919 920 922 923 922 923 924 924 924 923 921 919 917 913
789 798 806 814 823 828 836 845 850 854 858 861 865 868 873 878 881 888 894 902 907 909 912 915 917 918 920 922 922 921 921 921 921 921 920 917 915 911
787 794 801 808 816 823 830 838 846 851 856 860 864 868 872 876 879 885 892 898 904 906 910 911 913 916 919 920 920 919 920 920 920 918 917 916 913 911
786 790 796 801 810 817 824 829 837 844 851 857 862 866 870 874 876 879 883 890 898 904 906 909 908 912 915 917 918 918 918 918 917 917 915 913 911 909
778 785 791 798 804 811 818 824 830 840 849 854 858 863 868 871 875 879 883 886 891 894 896 902 903 908 912 914 916 916 916 915 915 915 913 911 908 906
771 778 783 792 802 807 814 822 830 838 846 851 855 860 864 869 874 878 882 887 890 892 895 899 897 903 908 911 913 914 914 913 913 912 910 908 907 904
767 772 777 788 797 804 812 816 825 833 840 847 850 855 861 867 872 875 880 884 888 891 894 898 897 901 905 907 909 911 912 911 911 911 909 908 904 901
765 770 778 787 796 801 809 815 820 826 832 839 845 852 859 866 870 873 877 882 886 891 895 897 897 901 903 905 907 909 910 911 910 908 907 907 905 899
760 769 776 785 794 802 806 810 816 823 829 836 842 850 857 862 867 872 877 880 883 889 894 895 897 900 902 904 906 907 906 908 908 906 906 902 901 897
754 762 770 777 783 793 800 805 812 818 824 832 839 845 851 858 865 872 877 880 883 889 892 895 897 900 903 904 904 905 905 905 906 904 903 900 896 895
748 757 763 771 777 786 794 800 807 812 817 825 834 841 848 854 864 870 875 879 883 888 891 895 895 898 900 902 903 902 903 902 901 902 902 899 897 892
744 751 757 764 772 778 786 792 800 810 814 820 831 837 844 851 860 866 871 875 881 885 889 893 894 896 898 899 902 904 904 903 902 900 898 895 893 890
740 746 752 759 766 773 780 788 795 803 809 818 825 833 841 849 856 861 867 874 879 884 887 890 893 896 899 900 901 903 903 904 904 901 898 895 892 888
735 742 749 756 761 769 776 782 792 800 807 815 822 829 837 845 852 857 863 869 875 881 885 889 892 895 896 898 899 901 902 901 902 901 897 896 895 891
735 741 748 753 758 764 771 778 787 796 804 809 817 826 834 842 848 854 861 868 873 878 883 887 892 895 895 898 900 901 902 901 900 898 896 894 894 891